User: anonymous   Login
Location: Unspecified
(0.0000°N, 0.0000°E)
Time: 10:17:17
(UTC+00:00)
Language:

Kosmos-1535 - Orbit

View from above orbital plane
View from above orbital plane
View from above satellite
View from above satellite

Ground track
Ground track

The orbit data is extracted from the following two-line orbital elements,

1 14679U 84010A   18196.89842610 +.00000046 +00000-0 +31696-4 0  9992
2 14679 082.9593 134.2665 0043074 130.8552 262.3902 13.75091251697217
Epoch (UTC): 15 July 2018 21:33:44
Eccentricity: 0.0043074
inclination: 82.9593°
perigee height: 949 km
apogee height: 1013 km
right ascension of ascending node: 134.2665°
argument of perigee: 130.8552°
revolutions per day: 13.75091251
mean anomaly at epoch: 262.3902°
orbit number at epoch: 69721

The dashed part of the orbit path shows where the satellite is in the earth's shadow,  

DLR